Location: Unspecified
(49.2170°N, 0.0000°E)
Time: 16:18:02
(UTC+00:00)

Envisat - Visible Passes

Search period start: 25 November 2020 00:00
Search period end: 05 December 2020 00:00
Orbit: 764 x 766 km, 98.1° (Epoch: 25 November)

Date Brightness Start Highest point End Pass type
(mag) Time Alt. Az. Time Alt. Az. Time Alt. Az.
25 Nov 3.8 05:42:20 10° NNE 05:47:20 54° E 05:52:18 10° S visible
25 Nov 3.2 17:00:55 10° S 17:06:00 79° WSW 17:11:08 10° NNW visible
25 Nov 6.3 18:44:04 10° WSW 18:45:52 12° W 18:47:40 10° WNW visible
26 Nov 5.2 05:06:00 10° NE 05:10:17 27° E 05:14:33 10° SSE visible
26 Nov 3.2 06:44:39 10° N 06:49:32 47° WNW 06:54:23 10° SW visible
26 Nov 5.4 18:04:29 10° SW 18:08:34 24° W 18:12:42 10° NW visible
27 Nov 6.1 04:30:38 10° ENE 04:33:02 13° E 04:35:25 10° ESE visible
27 Nov 3.0 06:07:41 10° NNE 06:12:49 87° ESE 06:17:54 10° SSW visible
27 Nov 4.1 17:26:35 10° S 17:31:29 48° W 17:36:26 10° NNW visible
28 Nov 4.3 05:31:02 10° NNE 05:35:54 43° E 05:40:44 10° S visible
28 Nov 3.0 16:49:31 10° SSE 16:54:36 84° ENE 16:59:44 10° NNW visible
28 Nov 6.1 18:31:29 10° WSW 18:34:18 15° W 18:37:08 10° NW visible
29 Nov 5.5 04:54:53 10° NE 04:58:47 22° E 05:02:41 10° SE visible
29 Nov 3.1 06:33:11 10° N 06:38:11 58° WNW 06:43:10 10° SSW visible
29 Nov 5.1 17:52:40 10° SSW 17:57:05 30° W 18:01:32 10° NNW visible
30 Nov 6.3 04:20:38 10° ENE 04:21:28 10° E 04:22:17 10° E visible
30 Nov 3.3 05:56:19 10° NNE 06:01:25 72° ESE 06:06:29 10° S visible
30 Nov 3.7 17:15:03 10° S 17:20:04 60° W 17:25:07 10° NNW visible
01 Dec 4.7 05:19:47 10° NNE 05:24:27 35° E 05:29:05 10° SSE visible
01 Dec 3.0 16:38:12 10° SSE 16:43:14 69° ENE 16:48:19 10° N visible
01 Dec 5.8 18:19:18 10° SW 18:22:47 18° W 18:26:16 10° NW visible
02 Dec 5.8 04:43:51 10° NE 04:47:16 18° E 04:50:40 10° SE visible
02 Dec 2.9 06:21:45 10° N 06:26:50 71° WNW 06:31:53 10° SSW visible
02 Dec 4.7 17:40:57 10° SSW 17:45:36 36° W 17:50:19 10° NNW visible
03 Dec 3.7 05:44:57 10° NNE 05:50:00 58° E 05:55:00 10° S visible
03 Dec 3.3 17:03:35 10° S 17:08:39 74° WSW 17:13:45 10° NNW visible
03 Dec 6.3 18:47:23 10° W 18:48:34 11° W 18:49:46 10° WNW visible
04 Dec 5.0 05:08:34 10° NE 05:12:58 29° E 05:17:21 10° SSE visible
04 Dec 3.3 06:47:20 10° N 06:52:09 44° WNW 06:56:57 10° SW visible
04 Dec 5.5 18:07:18 10° SW 18:11:15 23° W 18:15:14 10° NW visible
